#timestamp,LO_Frequency,Hit,StdDev 
1632337215.6,286047000.3,N
1632337235.5,286047000.4,N
1632337255.3,286047001.1,N
1632337275.1,286047001.1,N
1632337295.9,286047001.0,N
1632337315.7,286047002.6,N
1632337335.5,286047000.1,N
1632337355.4,286047002.7,N
1632337375.2,286047000.1,N
1632337395.1,286047000.3,N
1632337396.0,286047000.3,N
1632337415.8,286047000.1,N
1632337435.6,286047002.6,N
1632337455.5,286046999.9,N
1632337475.3,286046998.1,N
1632337495.2,286046998.4,N
1632337515.9,286046998.1,N
1632337535.7,286047000.9,N
1632337555.6,286047001.2,N
1632337575.4,286046998.8,N
1632337595.2,286046998.7,N
1632337615.1,286046998.6,N
1632337616.0,286046998.6,N
1632337635.8,286047000.6,N
1632337655.7,286047000.4,N
1632337675.5,286047000.1,N
1632337695.3,286047000.9,N
1632337715.2,286046998.2,N
1632337735.0,286046999.9,N
1632337735.9,286046999.9,N
1632337755.8,286047002.3,N
1632337775.6,286047000.2,N
1632337795.4,286047000.1,N
1632337815.3,286047000.0,N
1632337835.1,286047002.1,N
1632337855.9,286047002.4,N
1632337875.7,286047000.7,N
1632337895.5,286047000.2,N
1632337915.4,286047000.6,N
1632337935.2,286047000.6,N
1632337955.0,286046999.9,N
1632337955.9,286046999.9,N
1632337975.8,286047001.1,N
1632337995.6,286046998.2,N
1632338015.5,286046998.2,N
1632338035.9,286046999.2,N
1632338055.7,286046999.4,N
1632338075.6,286046998.4,N
1632338095.4,286047000.6,N
1632338115.3,286047000.4,N
1632338135.1,286047000.1,N
1632338136.0,286047000.1,N
1632338155.8,286047000.9,N
1632338175.7,286047000.8,N
1632338195.5,286046999.8,N
1632338215.4,286047001.0,N
1632338235.2,286047001.1,N
1632338255.0,286047000.9,N
1632338255.9,286047000.9,N
1632338275.8,286046998.2,N
1632338295.6,286047001.1,N
1632338315.4,286047000.0,N
1632338335.3,286047000.4,N
1632338355.1,286047002.3,N
1632338375.9,286046999.7,N
1632338395.7,286046999.9,N
1632338415.5,286047000.0,N
1632338435.4,286047000.1,N
1632338455.2,286047000.0,N
1632338475.0,286047000.4,N
1632338476.0,286047000.4,N
1632338495.8,286046998.6,N
1632338515.6,286046999.2,N
1632338535.5,286046998.9,N
1632338555.3,286046998.8,N
1632338575.1,286046999.0,N
1632338595.9,286047001.0,N
1632338615.7,286047000.7,N
1632338635.6,286046998.1,N
1632338655.4,286046998.6,N
1632338675.2,286047000.5,N
1632338695.1,286047000.6,N
1632338696.0,286047000.6,N
1632338715.8,286047000.7,N
1632338735.7,286047000.9,N
1632338755.5,286047002.5,N
1632338775.3,286046999.9,N
1632338795.2,286047000.9,N
1632338815.9,286046998.3,N
1632338835.7,286047001.2,N
1632338855.6,286047000.9,N
1632338875.4,286047000.0,N
1632338895.3,286047001.0,N
1632338915.1,286046998.2,N
1632338916.0,286046998.2,N
1632338935.8,286047001.2,N
1632338955.7,286046998.3,N
1632338975.5,286047000.5,N
1632338995.3,286047000.3,N
1632339015.2,286046999.7,N
1632339035.0,286047000.8,N
1632339035.9,286047000.8,N
1632339055.8,286047000.1,N
1632339075.6,286047000.5,N
1632339095.4,286046998.1,N
1632339115.3,286047000.5,N
1632339135.1,286047001.0,N
1632339155.8,286047001.2,N
1632339175.7,286047001.2,N
1632339195.5,286047000.7,N
1632339215.4,286046998.6,N
1632339235.2,286047001.0,N
1632339255.0,286047000.7,N
1632339255.9,286047000.7,N
1632339275.8,286047001.2,N
1632339295.6,286047000.8,N
1632339315.5,286047000.2,N
1632339335.3,286046999.4,N
1632339355.1,286046999.0,N
1632339375.9,286046998.7,N
1632339395.7,286046998.8,N
1632339415.5,286046998.2,N
1632339435.4,286046999.3,N
1632339455.2,286046999.5,N
1632339475.1,286046996.7,Y
1632339476.0,286046996.7,P
1632339495.8,286046997.4,N
1632339515.6,286046996.7,N
1632339535.5,286046996.9,N
1632339555.3,286046999.5,N
1632339575.2,286046999.3,N
1632339595.9,286046999.3,N
1632339615.7,286046998.1,N
1632339635.6,286046998.8,N
1632339655.4,286047000.9,N
1632339675.2,286046999.5,N
1632339695.1,286046996.8,N
1632339696.0,286046996.8,N
1632339715.8,286046999.5,N
1632339735.7,286046996.9,N
1632339755.5,286046999.5,N
1632339775.4,286046996.5,N
1632339795.2,286046997.5,N
1632339815.0,286046997.5,N
1632339815.9,286046997.5,N
1632339835.8,286046996.5,N
1632339855.6,286046999.6,N
1632339875.5,286046996.6,N
1632339895.3,286046996.5,N
1632339915.1,286046996.6,N
1632339935.9,286046997.0,N
1632339955.7,286046997.3,N
1632339975.5,286046997.1,N
1632339995.4,286046998.0,N
1632340015.2,286046997.7,N
1632340035.1,286046997.7,N
1632340036.0,286046997.7,N
1632340055.8,286046997.7,N
1632340075.6,286046999.6,N
1632340095.5,286046996.5,N
1632340115.3,286046999.2,N
1632340135.2,286046996.8,N
1632340155.9,286046999.5,N
1632340175.7,286046997.3,N
1632340195.6,286046999.4,N
1632340215.4,286046996.5,Y
1632340235.2,286047003.9,P
1632340255.1,286047003.4,N
1632340256.0,286047003.4,N
1632340275.8,286047005.6,N
1632340295.7,286047003.2,N
1632340315.5,286047003.8,N
1632340335.3,286047004.4,N
1632340355.2,286047002.6,N
1632340375.0,286047004.3,N
1632340375.9,286047004.3,N
1632340395.8,286047004.3,N
1632340415.6,286047004.2,N
1632340435.4,286047003.6,N
1632340455.3,286047005.5,Y
1632340475.1,286046998.4,P
1632340495.8,286046996.6,N
1632340515.7,286046996.5,N
1632340535.5,286046997.0,N
1632340555.4,286046996.9,N
1632340575.2,286046996.6,N
1632340595.0,286046996.6,N
1632340595.9,286046996.6,N
1632340615.8,286046997.2,N
1632340635.6,286046997.9,N
1632340655.5,286046994.9,N
1632340675.3,286046997.4,N
1632340695.1,286046997.2,N
1632340715.9,286046996.9,N
1632340735.7,286046999.6,N
1632340755.5,286046998.7,N
1632340775.4,286046999.6,N
1632340795.2,286046999.1,N
